sat.trackr.live / text

‹ back to catalog

STARLINK-5681

NORAD 55469 · 2023-015W

PAYLOAD ACTIVE UNKNOWN

§ Identity

Operator
Country
US
Launch date
2023-02-02
Launch site
AFETR
Launch vehicle
Mass (kg)
RCS (m²)

Purposes: comms

External: N2YO · Heavens-Above · Gunter

§ Orbital elements

Epoch: 2026-09-20T09:53:55.704192Z

Period
94.27 min
Inclination
43.0031°
Eccentricity
0.0001385
Mean motion
15.27576770 rev/d
Perigee alt
482.1 km
Apogee alt
484.0 km
Semi-major
6,861.2 km
B*
6.9286e-6
RAAN
308.9243°
Arg perigee
271.6482°
Mean anomaly
88.4211°
Rev number
20,050

§ Raw data

STARLINK-56811 55469U 23015W   26263.41245028 -.00000072  00000+0  69286-5 0  99902 55469  43.0031 308.9243 0001385 271.6482  88.4211 15.27576770200506

JSON: /api/v1/satellites/55469 · /tle

For live sub-satellite position, see the globe view (requires WebGL).

§ Visibility from observer

Set your observer location to see the next 7 days of passes ≥ 10°. The values pass through the URL so the page stays shareable.

No JS? Fill the form by hand. The geolocation button needs JavaScript.